FW5941 Weather Reports


time (UTC)temp
C
wind
direction
speed
KPH
gust
KPH
rain 1hr
cm
rain 24hr
cm
rain mn
cm
humidity
%
barometer
mb
20260508235710 25 41 1.6 8.0 0.00 0.00 0.00 22 1015.6
20260508235212 25 325 1.6 8.0 0.00 0.00 0.00 24 1015.7
20260508234210 25 274 3.2 11.3 0.00 0.00 0.00 22 1015.7
20260508233209 25 276 3.2 6.4 0.00 0.00 0.00 24 1015.7
20260508231710 25 343 3.2 8.0 0.00 0.00 0.00 23 1015.8
20260508231210 25 36 3.2 11.3 0.00 0.00 0.00 23 1015.7
20260508230715 25 309 3.2 11.3 0.00 0.00 0.00 24 1015.7
20260508230214 25 283 4.8 11.3 0.00 0.00 0.00 23 1015.8
20260508225213 25 40 3.2 9.7 0.00 0.00 0.00 24 1015.9
20260508224712 25 28 4.8 12.9 0.00 0.00 0.00 23 1015.9
20260508224211 25 355 4.8 12.9 0.00 0.00 0.00 23 1016.0
20260508223709 25 348 3.2 11.3 0.00 0.00 0.00 23 1016.2
20260508223209 25 333 4.8 9.7 0.00 0.00 0.00 23 1016.2
20260508222710 25 338 3.2 11.3 0.00 0.00 0.00 21 1016.4
20260508222206 25 65 3.2 11.3 0.00 0.00 0.00 24 1016.3
20260508221707 25 281 4.8 11.3 0.00 0.00 0.00 24 1016.4
20260508221206 25 92 4.8 11.3 0.00 0.00 0.00 22 1016.4
20260508220205 25 80 4.8 16.1 0.00 0.00 0.00 28 1016.5
20260508215705 25 28 4.8 16.1 0.00 0.00 0.00 25 1016.5
20260508215206 25 71 4.8 11.3 0.00 0.00 0.00 30 1016.7
20260508213704 25 281 4.8 14.5 0.00 0.00 0.00 23 1016.7
20260508212701 25 310 3.2 6.4 0.00 0.00 0.00 28 1016.8
20260508212156 24 94 3.2 16.1 0.00 0.00 0.00 27 1017.0
20260508210656 24 34 4.8 20.9 0.00 0.00 0.00 26 1017.0
20260508210158 24 309 4.8 20.9 0.00 0.00 0.00 26 1017.1
20260508205656 24 277 3.2 19.3 0.00 0.00 0.00 24 1017.2
20260508205155 24 34 3.2 14.5 0.00 0.00 0.00 27 1017.2
20260508204658 24 61 4.8 17.7 0.00 0.00 0.00 28 1017.2
20260508204154 24 309 4.8 17.7 0.00 0.00 0.00 28 1017.3
20260508203652 24 45 3.2 12.9 0.00 0.00 0.00 27 1017.3
20260508203154 24 317 3.2 12.9 0.00 0.00 0.00 27 1017.2
20260508202652 24 316 3.2 17.7 0.00 0.00 0.00 28 1017.3
20260508202155 24 279 3.2 17.7 0.00 0.00 0.00 28 1017.3
20260508201652 24 28 3.2 9.7 0.00 0.00 0.00 26 1017.5
20260508201154 24 303 3.2 9.7 0.00 0.00 0.00 31 1017.4
20260508200649 24 311 4.8 11.3 0.00 0.00 0.00 26 1017.6
20260508200148 24 313 4.8 14.5 0.00 0.00 0.00 24 1017.6
20260508195152 24 300 3.2 12.9 0.00 0.00 0.00 24 1017.6
20260508194648 24 309 4.8 11.3 0.00 0.00 0.00 24 1017.6
20260508194148 24 336 4.8 11.3 0.00 0.00 0.00 24 1017.6
20260508193648 24 277 4.8 17.7 0.00 0.00 0.00 30 1017.6
20260508193150 24 287 4.8 17.7 0.00 0.00 0.00 23 1017.6
20260508192646 24 16 4.8 16.1 0.00 0.00 0.00 29 1017.6
20260508192145 24 311 4.8 16.1 0.00 0.00 0.00 27 1017.5
20260508191646 24 74 4.8 11.3 0.00 0.00 0.00 26 1017.6
20260508191149 24 281 4.8 14.5 0.00 0.00 0.00 26 1017.6
20260508190644 23 211 4.8 14.5 0.00 0.00 0.00 28 1017.6
20260508190144 23 109 4.8 12.9 0.00 0.00 0.00 27 1017.8
20260508185647 24 5 4.8 12.9 0.00 0.00 0.00 25 1017.8
20260508185147 24 64 4.8 16.1 0.00 0.00 0.00 27 1017.9
20260508184644 24 332 6.4 16.1 0.00 0.00 0.00 26 1018.0
20260508183639 24 294 4.8 16.1 0.00 0.00 0.00 25 1018.0
20260508183140 24 274 4.8 16.1 0.00 0.00 0.00 27 1017.9
20260508182639 23 56 4.8 19.3 0.00 0.00 0.00 27 1017.9
20260508182138 23 287 6.4 19.3 0.00 0.00 0.00 27 1018.0
20260508181638 23 290 4.8 14.5 0.00 0.00 0.00 27 1018.0
20260508180640 23 298 4.8 14.5 0.00 0.00 0.00 27 1018.0
20260508180138 23 345 4.8 17.7 0.00 0.00 0.00 27 1018.0
20260508175638 24 29 3.2 17.7 0.00 0.00 0.00 28 1018.0
20260508175140 23 61 4.8 19.3 0.00 0.00 0.00 32 1018.1
20260508174632 23 43 4.8 19.3 0.00 0.00 0.00 28 1018.1
20260508174132 23 28 3.2 16.1 0.00 0.00 0.00 30 1018.2
20260508173632 23 44 3.2 11.3 0.00 0.00 0.00 31 1018.3
20260508173135 22 278 3.2 11.3 0.00 0.00 0.00 31 1018.4
20260508172633 23 270 3.2 11.3 0.00 0.00 0.00 30 1018.4
20260508172134 23 294 4.8 12.9 0.00 0.00 0.00 31 1018.4
20260508171132 23 285 3.2 9.7 0.00 0.00 0.00 35 1018.4
20260508170632 23 300 4.8 14.5 0.00 0.00 0.00 32 1018.4
20260508170133 23 43 3.2 14.5 0.00 0.00 0.00 32 1018.3
20260508165631 23 52 3.2 14.5 0.00 0.00 0.00 33 1018.3
20260508165131 23 287 3.2 14.5 0.00 0.00 0.00 34 1018.3
20260508164633 23 60 3.2 9.7 0.00 0.00 0.00 32 1018.3
20260508164129 23 50 3.2 8.0 0.00 0.00 0.00 32 1018.2
20260508163631 23 49 1.6 6.4 0.00 0.00 0.00 34 1018.3
20260508163130 23 49 1.6 6.4 0.00 0.00 0.00 34 1018.2
20260508162628 22 62 1.6 6.4 0.00 0.00 0.00 38 1018.2
20260508162126 22 49 3.2 9.7 0.00 0.00 0.00 36 1018.1
20260508161625 22 49 3.2 9.7 0.00 0.00 0.00 34 1018.2
20260508161125 22 69 3.2 8.0 0.00 0.00 0.00 35 1018.2
20260508160625 21 92 1.6 6.4 0.00 0.00 0.00 35 1018.1
20260508160121 21 98 1.6 6.4 0.00 0.00 0.00 38 1018.1
20260508154616 20 132 0.0 3.2 0.00 0.00 0.00 40 1018.0
20260508154118 20 132 0.0 3.2 0.00 0.00 0.00 44 1018.1
20260508153617 19 132 1.6 4.8 0.00 0.00 0.00 42 1018.0
20260508153114 19 132 1.6 4.8 0.00 0.00 0.00 42 1018.1
20260508152610 18 132 1.6 4.8 0.00 0.00 0.00 46 1018.0
20260508152112 18 132 1.6 4.8 0.00 0.00 0.00 49 1018.0
20260508151111 17 132 1.6 4.8 0.00 0.00 0.00 50 1018.0
20260508150607 16 132 1.6 4.8 0.00 0.00 0.00 50 1017.9
20260508150111 16 132 1.6 6.4 0.00 0.00 0.00 53 1017.9
20260508145609 16 133 1.6 6.4 0.00 0.00 0.00 54 1017.9
20260508145108 15 136 1.6 6.4 0.00 0.00 0.00 54 1017.8
20260508144604 15 136 1.6 6.4 0.00 0.00 0.00 55 1017.8
20260508144106 15 132 1.6 6.4 0.00 0.00 0.00 56 1017.6
20260508143605 14 132 1.6 4.8 0.00 0.00 0.00 56 1017.8
20260508143104 13 132 1.6 4.8 0.00 0.00 0.00 57 1017.8
20260508142606 13 128 1.6 4.8 0.00 0.00 0.00 58 1017.6
20260508142103 12 128 1.6 4.8 0.00 0.00 0.00 59 1017.6
20260508141548 12 127 1.6 4.8 0.00 0.00 0.00 61 1017.5
20260508141049 11 127 1.6 6.4 0.00 0.00 0.00 62 1017.5
20260508140548 11 124 1.6 6.4 0.00 0.00 0.00 64 1017.5
20260508140047 11 108 0.0 4.8 0.00 0.00 0.00 65 1017.4
20260508135548 10 88 0.0 3.2 0.00 0.00 0.00 66 1017.5
20260508135045 10 88 0.0 0.0 0.00 0.00 0.00 66 1017.4
20260508134547 10 88 0.0 0.0 0.00 0.00 0.00 66 1017.3
20260508134046 10 88 0.0 3.2 0.00 0.00 0.00 67 1017.2
20260508133545 9 88 0.0 3.2 0.00 0.00 0.00 67 1017.2
20260508133045 9 88 0.0 1.6 0.00 0.00 0.00 67 1017.2
20260508132543 9 88 0.0 0.0 0.00 0.00 0.00 67 1017.1
20260508132043 8 88 0.0 0.0 0.00 0.00 0.00 66 1017.1
20260508131537 8 88 0.0 0.0 0.00 0.00 0.00 66 1017.1
20260508131038 8 88 0.0 0.0 0.00 0.00 0.00 66 1017.1
20260508130540 8 88 0.0 0.0 0.00 0.00 0.00 65 1017.0
20260508130041 8 88 0.0 1.6 0.00 0.00 0.00 65 1016.8
20260508125540 8 88 0.0 1.6 0.00 0.00 0.00 65 1016.8
20260508125036 8 88 0.0 1.6 0.00 0.00 0.00 65 1016.8
20260508124036 8 88 0.0 0.0 0.00 0.00 0.00 64 1016.7
20260508123538 8 88 0.0 0.0 0.00 0.00 0.00 63 1016.7
20260508123037 8 88 0.0 0.0 0.00 0.00 0.00 63 1016.6
20260508122041 8 88 0.0 0.0 0.00 0.00 0.00 63 1016.5
20260508121538 8 88 0.0 0.0 0.00 0.00 0.00 63 1016.5
20260508121038 9 88 0.0 0.0 0.00 0.00 0.00 62 1016.5
20260508120537 9 88 0.0 0.0 0.00 0.00 0.00 62 1016.5
20260508120036 9 88 0.0 4.8 0.00 0.00 0.00 62 1016.5
20260508115533 9 88 0.0 4.8 0.00 0.00 0.00 62 1016.5
20260508115033 9 88 0.0 3.2 0.00 0.00 0.00 62 1016.5
20260508114530 9 88 0.0 0.0 0.00 0.00 0.00 62 1016.4
20260508114032 9 88 0.0 0.0 0.00 0.00 0.00 62 1016.4
20260508113033 9 88 0.0 0.0 0.00 0.00 0.00 61 1016.4
20260508112529 9 88 0.0 0.0 0.00 0.00 0.00 61 1016.3
20260508111526 9 88 0.0 3.2 0.00 0.00 0.00 61 1016.4
20260508111026 9 88 0.0 0.0 0.00 0.00 0.00 61 1016.3
20260508110521 9 88 0.0 0.0 0.00 0.00 0.00 61 1016.3
20260508110022 9 88 0.0 0.0 0.00 0.00 0.00 61 1016.3
20260508105512 10 88 0.0 0.0 0.00 0.00 0.00 61 1016.3
20260508105013 10 88 0.0 0.0 0.00 0.00 0.00 62 1016.2
20260508104511 10 88 0.0 0.0 0.00 0.00 0.00 62 1016.2
20260508104011 10 88 0.0 0.0 0.00 0.00 0.00 61 1016.0
20260508103011 10 88 0.0 0.0 0.00 0.00 0.00 61 1016.0
20260508102508 10 88 0.0 0.0 0.00 0.00 0.00 61 1016.0
20260508102006 10 88 0.0 0.0 0.00 0.00 0.00 62 1016.2
20260508101510 10 88 0.0 0.0 0.00 0.00 0.00 62 1016.0
20260508100004 10 88 0.0 0.0 0.00 0.00 0.00 61 1016.0
20260508095504 10 88 0.0 0.0 0.00 0.00 0.00 61 1016.0
20260508095000 10 88 0.0 0.0 0.00 0.00 0.00 60 1015.9
20260508094000 10 88 0.0 0.0 0.00 0.00 0.00 59 1016.0
20260508092456 11 88 0.0 1.6 0.00 0.00 0.00 59 1015.8
20260508091955 11 88 0.0 0.0 0.00 0.00 0.00 58 1015.8
20260508091457 11 88 0.0 0.0 0.00 0.00 0.00 57 1015.8
20260508090954 11 88 0.0 0.0 0.00 0.00 0.00 56 1015.9
20260508090452 11 88 0.0 0.0 0.00 0.00 0.00 56 1015.8
20260508085949 11 88 0.0 0.0 0.00 0.00 0.00 55 1015.8
20260508085449 12 88 0.0 0.0 0.00 0.00 0.00 55 1015.8
20260508083946 12 88 0.0 1.6 0.00 0.00 0.00 53 1015.9
20260508083447 12 88 0.0 1.6 0.00 0.00 0.00 53 1015.9
20260508082940 12 88 0.0 3.2 0.00 0.00 0.00 52 1015.8
20260508082439 12 88 1.6 3.2 0.00 0.00 0.00 52 1015.8
20260508081939 12 88 1.6 3.2 0.00 0.00 0.00 52 1015.8
20260508081439 12 88 1.6 3.2 0.00 0.00 0.00 52 1015.7
20260508080939 12 88 1.6 3.2 0.00 0.00 0.00 53 1015.7
20260508080437 12 88 0.0 3.2 0.00 0.00 0.00 53 1015.7
20260508075938 11 88 0.0 3.2 0.00 0.00 0.00 54 1015.7
20260508074934 11 88 0.0 3.2 0.00 0.00 0.00 54 1015.7
20260508074433 11 88 0.0 3.2 0.00 0.00 0.00 55 1015.7
20260508073431 11 88 0.0 1.6 0.00 0.00 0.00 55 1015.7
20260508072932 11 88 0.0 1.6 0.00 0.00 0.00 56 1015.7
20260508072429 11 88 0.0 1.6 0.00 0.00 0.00 56 1015.7
20260508071931 11 88 0.0 0.0 0.00 0.00 0.00 55 1015.7
20260508070424 12 88 0.0 0.0 0.00 0.00 0.00 54 1015.8
20260508065923 12 88 0.0 1.6 0.00 0.00 0.00 54 1015.8
20260508065418 12 88 0.0 1.6 0.00 0.00 0.00 53 1015.8
20260508064916 12 88 0.0 0.0 0.00 0.00 0.00 52 1015.9
20260508063918 12 88 0.0 0.0 0.00 0.00 0.00 51 1015.6
20260508063416 12 88 0.0 0.0 0.00 0.00 0.00 51 1015.7
20260508062918 12 88 0.0 0.0 0.00 0.00 0.00 51 1015.7
20260508062416 13 88 0.0 0.0 0.00 0.00 0.00 51 1015.7
20260508061913 13 88 0.0 0.0 0.00 0.00 0.00 51 1015.6
20260508061411 13 88 0.0 0.0 0.00 0.00 0.00 51 1015.7
20260508060912 13 88 0.0 0.0 0.00 0.00 0.00 50 1015.6
20260508060410 13 88 0.0 0.0 0.00 0.00 0.00 50 1015.5
20260508055909 13 88 0.0 0.0 0.00 0.00 0.00 49 1015.5
20260508055410 13 88 0.0 0.0 0.00 0.00 0.00 49 1015.4
20260508054410 14 88 0.0 0.0 0.00 0.00 0.00 47 1015.4
20260508053911 14 88 0.0 0.0 0.00 0.00 0.00 47 1015.4
20260508053407 15 88 0.0 0.0 0.00 0.00 0.00 47 1015.4
20260508052907 15 88 0.0 0.0 0.00 0.00 0.00 45 1015.4
20260508052406 15 88 0.0 0.0 0.00 0.00 0.00 45 1015.2
20260508051905 15 88 0.0 0.0 0.00 0.00 0.00 44 1015.1
20260508051405 15 88 0.0 0.0 0.00 0.00 0.00 44 1015.1
20260508050903 15 88 0.0 1.6 0.00 0.00 0.00 44 1015.1
20260508050405 15 88 0.0 1.6 0.00 0.00 0.00 44 1015.1
20260508045904 15 88 0.0 1.6 0.00 0.00 0.00 44 1015.2
20260508045403 15 88 0.0 1.6 0.00 0.00 0.00 44 1015.1
20260508044904 15 88 0.0 0.0 0.00 0.00 0.00 46 1015.1
20260508044401 15 88 0.0 0.0 0.00 0.00 0.00 45 1015.0
20260508043903 15 88 0.0 0.0 0.00 0.00 0.00 46 1015.2
20260508043405 15 88 0.0 0.0 0.00 0.00 0.00 45 1015.2
20260508042904 15 88 0.0 0.0 0.00 0.00 0.00 43 1015.2
20260508042404 16 88 0.0 0.0 0.00 0.00 0.00 44 1015.1
20260508041904 16 88 0.0 0.0 0.00 0.00 0.00 44 1015.2
20260508041408 16 88 0.0 0.0 0.00 0.00 0.00 44 1015.2
20260508040907 16 88 0.0 0.0 0.00 0.00 0.00 44 1015.2
20260508040407 16 88 0.0 0.0 0.00 0.00 0.00 44 1015.2
20260508035904 16 88 0.0 0.0 0.00 0.00 0.00 43 1015.1
20260508035405 16 88 0.0 1.6 0.00 0.00 0.00 42 1015.1
20260508034900 16 88 0.0 1.6 0.00 0.00 0.00 42 1014.9
20260508034401 16 88 0.0 0.0 0.00 0.00 0.00 41 1015.0
20260508033853 16 88 0.0 1.6 0.00 0.00 0.00 41 1014.9
20260508033347 17 88 0.0 3.2 0.00 0.00 0.00 40 1014.9
20260508032346 17 88 0.0 1.6 0.00 0.00 0.00 41 1014.8
20260508031841 17 88 0.0 0.0 0.00 0.00 0.00 43 1014.8
20260508031340 17 88 0.0 0.0 0.00 0.00 0.00 39 1014.7
20260508030839 18 88 0.0 0.0 0.00 0.00 0.00 40 1014.7
20260508030346 18 88 0.0 0.0 0.00 0.00 0.00 40 1014.6
20260508025844 18 88 0.0 0.0 0.00 0.00 0.00 39 1014.6
20260508025343 18 88 0.0 0.0 0.00 0.00 0.00 38 1014.6
20260508024334 20 88 0.0 0.0 0.00 0.00 0.00 35 1014.6
20260508023828 20 88 0.0 0.0 0.00 0.00 0.00 35 1014.4
20260508022818 21 88 0.0 0.0 0.00 0.00 0.00 34 1014.4
20260508022314 21 88 0.0 0.0 0.00 0.00 0.00 33 1014.4
20260508021812 21 88 0.0 0.0 0.00 0.00 0.00 32 1014.3
20260508020818 22 88 0.0 0.0 0.00 0.00 0.00 31 1014.3
20260508020313 22 88 0.0 0.0 0.00 0.00 0.00 29 1014.3
20260508015309 22 88 0.0 3.2 0.00 0.00 0.00 28 1014.2
20260508014811 22 88 0.0 3.2 0.00 0.00 0.00 28 1014.2
20260508014310 22 88 1.6 6.4 0.00 0.00 0.00 27 1014.3
20260508013809 23 88 3.2 6.4 0.00 0.00 0.00 28 1014.3
20260508013309 23 87 1.6 6.4 0.00 0.00 0.00 28 1014.2
20260508012805 23 85 1.6 4.8 0.00 0.00 0.00 27 1014.2
20260508012307 23 69 1.6 4.8 0.00 0.00 0.00 26 1014.3
20260508011802 23 68 0.0 4.8 0.00 0.00 0.00 27 1014.3
20260508010802 23 55 1.6 4.8 0.00 0.00 0.00 27 1014.2
20260508010302 23 30 0.0 3.2 0.00 0.00 0.00 26 1014.2
20260508005802 22 30 0.0 3.2 0.00 0.00 0.00 26 1014.3
20260508005300 22 30 0.0 3.2 0.00 0.00 0.00 27 1014.3
20260508004803 22 30 0.0 3.2 0.00 0.00 0.00 27 1014.4
20260508004300 22 30 0.0 3.2 0.00 0.00 0.00 28 1014.6
20260508003758 22 30 0.0 4.8 0.00 0.00 0.00 26 1014.6
20260508002754 23 27 0.0 4.8 0.00 0.00 0.00 27 1014.6
20260508002255 23 27 1.6 6.4 0.00 0.00 0.00 26 1014.6
20260508001755 23 26 1.6 9.7 0.00 0.00 0.00 27 1014.7
20260508001253 23 44 1.6 9.7 0.00 0.00 0.00 26 1014.6
20260508000751 23 50 1.6 9.7 0.00 0.00 0.00 25 1014.6
20260508000253 23 27 1.6 9.7 0.00 0.00 0.00 25 1014.6